Flag for Luxembourg Weather past 2 weeks in Ettelbruck, Luxembourg

Now
43 °F

Passing clouds.


Feels Like: 38 °F
Forecast: 43 / 51 °F
Wind: 8 mph from West

Location: Luxembourg / Luxembourg

Current Time: Mar 30, 2015 at 10:02:32 AM

Latest Report: Mar 30, 2015 at 9:00 AM


Visibility: 13 mi

Pressure: 29.67 "Hg

Humidity: 86%

Dew point: 39 °F

Location of EttelbruckLocation

Historic Weather in Ettelbruck — Graph

°F

Ettelbruck temperature yesterday

Maximum temperature yesterday: 50 °F (at 12:00 AM)
Minimum temperature yesterday: 47 °F (at 9:00 AM)
Average temperature yesterday: 49 °F

Past Weeks' High & Low Weather Summary

 TemperatureHumidityPressure
High65 °F (Mar 18, 4:00 PM)100% (Mar 21, 5:00 AM)30.34 "Hg (Mar 21, 5:00 AM)
Low29 °F (Mar 23, 7:00 AM)31% (Mar 18, 5:00 PM)29.50 "Hg (Mar 29, 9:00 PM)
Average44 °F79%30.05 "Hg
* Reported Mar 15 7:00 AM — Mar 30 8:00 AM, Ettelbruck, Weather by CustomWeather, © 2015

Note: Actual official high and low records may vary slightly from our data, if they occured in-between our weather recording intervals... More about our weather records

Advertising

Ettelbruck weather history for previous 24 hours

 ConditionsComfort  
Time TempWeatherWind HumidityBarometerVisibility
8:00 AM
Mon, Mar 30
41 °FPassing clouds.8 mph90%29.65 "Hg9 mi
7:00 AM42 °FPassing clouds.8 mph88%29.61 "Hg7 mi
6:00 AM41 °FOvercast.6 mph95%29.59 "Hg7 mi
5:00 AM45 °FOvercast.9 mph89%29.57 "Hg4 mi
4:00 AM45 °FCool.10 mph84%29.57 "Hg6 mi
3:00 AM46 °FCool.9 mph82%29.57 "Hg6 mi
2:00 AM46 °FSprinkles. Overcast.8 mph94%29.56 "Hg4 mi
1:00 AM48 °FOvercast.12 mph81%29.56 "Hg7 mi
12:00 AM49 °FOvercast.12 mph80%29.55 "Hg7 mi
11:00 PM
Sun, Mar 29
50 °FOvercast.15 mph82%29.53 "Hg7 mi
10:00 PM50 °FOvercast.14 mph90%29.53 "Hg7 mi
9:00 PM50 °FSprinkles. Overcast.14 mph93%29.50 "Hg6 mi
8:00 PM50 °FLight rain. Low clouds.14 mph95%29.54 "Hg6 mi
7:00 PM49 °FRain. Low clouds.13 mph96%29.54 "Hg2 mi
6:00 PM50 °FLight rain. Low clouds.14 mph95%29.55 "Hg2 mi
5:00 PM49 °FLight rain. Low clouds.12 mph97%29.58 "Hg1 mi
4:00 PM49 °FLow clouds.10 mph96%29.62 "Hg9 mi
3:00 PM48 °FLight rain. Low clouds.10 mph97%29.65 "Hg3 mi
2:00 PM48 °FLight rain. Low clouds.9 mph96%29.70 "Hg7 mi
1:00 PM48 °FLight rain. Low clouds.10 mph95%29.74 "Hg7 mi
12:00 PM47 °FLight rain. Low clouds.8 mph96%29.76 "Hg7 mi
11:00 AM47 °FLight rain. Low clouds.8 mph94%29.79 "Hg7 mi
10:00 AM47 °FLight rain. Overcast.8 mph94%29.82 "Hg7 mi
Weather by CustomWeather, © 2015

See weather overviewHow to use our weather pages